Location: Baia Mare
(47.6567°N, 23.5850°E)
Time: 13:36:36
(UTC+02:00)

ISS - Pass Details

Date: 30 December 2018
Orbit: 401 x 408 km, 51.6° (Epoch: 16 December)

Event Time Altitude Azimuth Distance (km) Brightness Sun altitude
Exits shadow 05:59:40 58° 65° (ENE) 480 -3.3 -21.5°
Drops below altitude 10° 06:02:23 10° 66° (ENE) 1,467 -0.3 -21.1°
Sets 06:04:28 0° 67° (ENE) 2,328 0.9 -20.8°
